COSMOS 2485 (747) (39155 NORAD) Tracking and Keplerian Element Data

This shows tracking and keplerian element data for the satellite.

Feedback or suggestion? Click here.




ElementValue
Catalog39155
NameCOSMOS 2485 (747)
Epoch Orbit4060
Epoch Day195.68027446
Epoch Year2018
RAAN171.0675
Inclination64.6612
Eccentricity0.0020923
Argument of Perigee240.9943
Mean Anonmoly243.4975
Mean Motion2.13102059
Decay Rate4.7E-07
L11 39155U 13019A 18195.68027446 .00000047 00000-0 00000+0 0 9998
L22 39155 64.6612 171.0675 0020923 240.9943 243.4975 2.13102059 40601

Live tracking and technical data element details for COSMOS 2485 (747) (NORAD 39155). COSMOS 2485 (747) can be tracked NOW for your location showing map with azimuth and elevation plus other details from your city location.

Track the satellite on the map from your city or location and see movement details for azimuth, elevation, latitude, longitude, range, height, and movement on the map or in text.







IsCatalogInMostPopularTable: catalog: 39155, numindb: 53
Update: records affected: 1



GetName: 39155 COSMOS 2485 (747)

Hit Count: updated at: Sun, 15 Jul 2018 22:53:03 GMT